Stations météo

Publicité
Rouen, France (7037): Température de l'air & dewpoint: 19.05.2017 08:00:00 - 25.05.2017 08:00:00 (CEST)Rouen, France (7037): Température de l'air 5cm: 19.05.2017 08:00:00 - 25.05.2017 08:00:00 (CEST)Rouen, France (7037): Température de l'air -20cm & Température de l'air -100cm: 19.05.2017 08:00:00 - 25.05.2017 08:00:00 (CEST)Rouen, France (7037): Vitesse du vent & gusts: 19.05.2017 08:00:00 - 25.05.2017 08:00:00 (CEST)Rouen, France (7037): Direction du vent: 19.05.2017 08:00:00 - 25.05.2017 08:00:00 (CEST)Rouen, France (7037): reduced air pressure: 19.05.2017 08:00:00 - 25.05.2017 08:00:00 (CEST)Rouen, France (7037): visibility: 19.05.2017 08:00:00 - 25.05.2017 08:00:00 (CEST)Rouen, France (7037): Ensoleillement: 19.05.2017 08:00:00 - 25.05.2017 08:00:00 (CEST)Rouen, France (7037): Quantités de précipitations: 19.05.2017 08:00:00 - 25.05.2017 08:00:00 (CEST)
Date & Time tt [°C] td [°C] tt 5cm [°C] tt -20cm [°C] tt -100cm [°C] ff [km/h] ff [knt] fx [km/h] fx [knt] dd ppp [hPa] vv [km] sd [min] rr [mm]
25.05.2017 08:00:00 15,8 12,4 14,3 16,8 13,2 12 6 18 10 ENE 1023,9 7 60 0,0
25.05.2017 07:00:00 13,7 11,4 12,2 16,8 13,2 13 7 19 10 ENE 1023,8 7 35 0,0
25.05.2017 06:00:00 12,7 11,1 12,2 16,9 13,2 15 8 21 11 NE 1023,9 8 0 0,0
25.05.2017 05:00:00 12,9 11,1 11,8 17,0 13,2 14 8 18 10 ENE 1023,8 9 0 0,0
25.05.2017 04:00:00 12,9 11,3 12,0 17,1 13,2 9 5 16 8 ENE 1024,1 12 0 0,0
25.05.2017 03:00:00 13,4 11,1 12,5 17,1 13,2 12 7 16 9 NE 1024,4 14 0 0,0
25.05.2017 02:00:00 14,4 11,7 13,6 17,2 13,1 12 6 16 9 NE 1024,7 12 0 0,0
25.05.2017 01:00:00 15,0 11,9 14,0 17,3 13,2 13 7 16 9 NE 1025,0 14 0 0,0
25.05.2017 00:00:00 15,3 12,2 14,2 17,3 13,1 11 6 18 10 NE 1025,2 18 0 0,0
24.05.2017 23:00:00 15,6 12,3 14,5 17,4 13,1 13 7 18 10 NNE 1025,4 19 0 0,0
24.05.2017 22:00:00 17,1 13,0 15,9 17,3 13,1 13 7 22 12 NNE 1024,9 19 0 0,0
24.05.2017 21:00:00 18,8 13,6 19,5 17,3 13,1 14 8 21 11 NNE 1024,7 19 36 0,0
24.05.2017 20:00:00 20,2 13,9 24,1 17,2 13,1 11 6 21 11 NNE 1024,7 41 45 0,0
24.05.2017 19:00:00 21,4 14,3 23,6 17,1 13,1 11 6 19 11 N 1024,6 19 20 0,0
24.05.2017 18:00:00 20,8 13,2 23,6 17,0 13,0 11 6 22 12 NNE 1024,9 20 12 0,0
24.05.2017 17:00:00 21,9 13,5 24,3 16,9 13,1 4 2 16 8 NE 1025,1 19 26 0,0
24.05.2017 16:00:00 20,5 13,0 25,2 16,8 13,0 8 4 16 9 NNW 1025,7 20 4 0,0
24.05.2017 15:00:00 19,6 12,4 23,6 16,7 13,0 8 5 21 11 N 1026,0 19 1 0,0
24.05.2017 14:00:00 20,1 12,1 23,4 16,6 13,0 6 3 14 8 N 1026,1 18 9 0,0
24.05.2017 13:00:00 18,8 12,5 21,5 16,5 13,0 3 2 14 8 N 1026,5 18 0 0,0
24.05.2017 12:00:00 17,8 12,5 21,4 16,5 13,0 5 3 10 6 WNW 1026,7 14 3 0,0
24.05.2017 11:00:00 17,6 13,5 20,8 16,5 13,0 6 4 12 6 WNW 1026,8 7 0 0,0
24.05.2017 10:00:00 16,3 13,6 17,7 16,5 13,0 6 4 11 6 W 1026,7 5 0 0,0
24.05.2017 09:00:00 15,4 13,9 16,0 16,6 13,0 6 3 11 6 W 1026,6 4,5 0 0,0
24.05.2017 08:00:00 14,6 13,8 14,8 16,6 13,0 5 3 9 5 W 1026,4 3,5 0 0,0
24.05.2017 07:00:00 14,3 13,5 14,2 16,7 13,0 4 2 10 5 WSW 1025,9 3,4 0 0,0
24.05.2017 06:00:00 14,2 13,4 14,2 16,8 13,0 4 2 9 5 W 1025,6 4,1 0 0,0
24.05.2017 05:00:00 14,3 13,3 14,2 16,8 13,0 5 3 11 6 WNW 1025,7 6 0 0,0
24.05.2017 04:00:00 14,4 13,4 14,2 16,9 13,0 7 4 16 9 WNW 1025,5 8 0 0,0
24.05.2017 03:00:00 14,5 13,5 14,3 17,0 13,0 8 4 20 11 NW 1025,6 9 0 0,0
24.05.2017 02:00:00 14,5 13,5 13,3 17,1 13,0 14 8 25 14 NW 1025,8 8 0 0,0
24.05.2017 01:00:00 14,3 13,0 11,5 17,1 12,9 11 6 15 8 NW 1025,7 12 0 0,0
24.05.2017 00:00:00 14,4 12,6 13,1 17,2 12,9 10 5 15 8 NW 1025,6 16 0 0,0
23.05.2017 23:00:00 14,6 12,5 11,4 17,2 12,9 7 4 14 8 WNW 1025,6 20 0 0,0
23.05.2017 22:00:00 16,0 12,4 15,1 17,2 12,9 10 6 23 12 NW 1025,1 55 0 0,0
23.05.2017 21:00:00 17,9 13,0 18,0 17,1 12,9 13 7 23 12 NW 1024,6 20 0 0,0
23.05.2017 20:00:00 19,1 13,1 20,0 17,1 12,9 12 7 26 14 WNW 1024,2 18 23 0,0
23.05.2017 19:00:00 20,5 13,7 23,6 16,9 12,9 14 8 30 16 WNW 1023,8 18 58 0,0
23.05.2017 18:00:00 21,0 12,9 25,1 16,7 12,9 16 9 31 17 WNW 1023,6 19 42 0,0
23.05.2017 17:00:00 21,2 12,3 27,9 16,5 12,9 16 8 38 21 W 1023,4 18 57 0,0
23.05.2017 16:00:00 21,6 12,4 27,8 16,2 12,9 16 9 31 17 NW 1023,1 18 60 0,0
23.05.2017 15:00:00 20,9 10,7 27,7 16,1 12,9 14 8 29 16 WNW 1023,1 19 60 0,0
23.05.2017 14:00:00 20,1 11,6 25,1 15,9 12,9 17 9 29 16 NW 1023,2 17 60 0,0
23.05.2017 13:00:00 19,0 10,3 24,2 15,8 12,8 21 11 33 18 NNW 1023,3 15 60 0,0
23.05.2017 12:00:00 18,1 10,9 23,0 15,8 12,9 15 8 29 16 NW 1023,0 18 60 0,0
23.05.2017 11:00:00 16,9 10,0 20,6 15,8 12,8 14 8 31 17 NW 1022,6 18 60 0,0
23.05.2017 10:00:00 15,7 10,2 17,9 15,9 12,9 15 8 30 16 NW 1022,1 17 58 0,0
23.05.2017 09:00:00 14,4 9,6 15,2 15,9 12,9 18 10 27 15 WNW 1021,6 15 56 0,0
23.05.2017 08:00:00 13,7 11,2 12,9 16,0 12,9 16 9 27 14 WNW 1021,0 10 53 0,0
23.05.2017 07:00:00 12,8 11,2 12,5 16,1 12,8 12 7 25 14 WNW 1020,3 8 1 0,0
23.05.2017 06:00:00 13,2 11,6 12,9 16,2 12,9 13 7 31 17 NW 1019,8 7 0 0,0
23.05.2017 05:00:00 13,0 11,7 12,2 16,2 12,8 10 5 32 17 NW 1019,4 4,2 0 0,0
23.05.2017 04:00:00 12,9 11,5 11,9 16,3 12,8 15 8 31 17 WNW 1018,8 6 0 0,0
23.05.2017 03:00:00 13,0 10,9 11,5 16,4 12,8 12 6 24 13 WNW 1018,4 9 0 0,0
23.05.2017 02:00:00 13,6 10,4 12,0 16,4 12,8 9 5 21 12 WNW 1018,2 16 0 0,0
23.05.2017 01:00:00 15,1 11,1 12,6 16,5 12,8 10 6 19 11 WNW 1017,7 16 0 0,0
23.05.2017 00:00:00 17,8 10,9 11,1 16,5 12,8 8 5 11 6 NW 1017,0 56 0 0,0
22.05.2017 23:00:00 16,8 11,5 10,7 16,5 12,8 9 5 11 6 NW 1016,8 19 0 0,0
22.05.2017 22:00:00 17,4 12,5 11,9 16,5 12,8 5 3 10 5 W 1016,2 20 0 0,0
22.05.2017 21:00:00 20,6 13,1 17,1 16,4 12,8 6 4 8 4 SSW 1015,2 19 29 0,0
22.05.2017 20:00:00 23,6 12,6 27,5 16,3 12,8 6 4 13 7 SW 1014,7 16 60 0,0
22.05.2017 19:00:00 24,3 12,9 28,5 16,1 12,8 11 6 20 11 SSW 1014,7 18 60 0,0
22.05.2017 18:00:00 24,8 12,4 29,7 15,9 12,8 15 8 23 12 SW 1014,9 17 60 0,0
22.05.2017 17:00:00 24,2 11,5 30,1 15,6 12,8 13 7 24 13 S 1015,0 18 60 0,0
22.05.2017 16:00:00 24,1 12,1 28,6 15,4 12,8 10 6 23 13 SSW 1015,4 18 60 0,0
22.05.2017 15:00:00 22,3 12,0 27,2 15,3 12,8 8 5 27 15 SSE 1015,8 18 39 0,0
22.05.2017 14:00:00 23,0 11,7 24,7 15,2 12,8 14 8 24 13 SSE 1015,5 60 26 0,0
22.05.2017 13:00:00 21,4 12,5 23,3 15,0 12,7 15 8 21 11 ESE 1016,2 18 14 0,0
22.05.2017 12:00:00 20,6 11,0 24,0 15,0 12,7 13 7 27 15 ESE 1016,2 19 37 0,0
22.05.2017 11:00:00 20,5 10,0 24,1 15,0 12,8 10 5 18 10 SE 1017,1 19 60 0,0
22.05.2017 10:00:00 18,6 10,4 18,6 15,0 12,7 11 6 22 12 SE 1017,0 20 60 0,0
22.05.2017 09:00:00 15,7 9,1 15,4 15,1 12,8 15 8 23 12 ESE 1016,9 19 60 0,0
22.05.2017 08:00:00 13,7 7,9 11,1 15,2 12,8 12 6 24 13 E 1017,2 60 60 0,0
22.05.2017 07:00:00 10,9 6,8 4,9 15,3 12,8 14 7 18 10 E 1017,5 57 28 0,0
22.05.2017 06:00:00 8,9 6,0 5,4 15,4 12,8 9 5 13 7 ENE 1017,9 60 0 0,0
22.05.2017 05:00:00 9,7 6,0 8,2 15,5 12,7 13 7 18 10 ENE 1017,8 60 0 0,0
22.05.2017 04:00:00 10,5 6,4 8,7 15,6 12,8 11 6 16 9 ENE 1018,3 60 0 0,0
22.05.2017 03:00:00 9,6 6,7 7,7 15,6 12,7 13 7 16 8 ENE 1019,0 60 0 0,0
22.05.2017 02:00:00 10,7 6,8 9,2 15,8 12,8 9 5 16 9 ENE 1019,6 60 0 0,0
22.05.2017 01:00:00 11,6 7,3 10,1 15,8 12,7 11 6 20 11 E 1019,8 60 0 0,0
22.05.2017 00:00:00 12,2 7,5 10,9 15,9 12,7 13 7 21 11 E 1020,3 60 0 0,0
21.05.2017 23:00:00 13,0 7,9 11,8 15,9 12,7 14 8 19 11 E 1020,3 60 0 0,0
21.05.2017 22:00:00 13,8 8,2 12,2 15,9 12,8 11 6 17 9 E 1020,4 60 0 0,0
21.05.2017 21:00:00 16,3 8,8 16,4 15,8 12,7 11 6 21 11 E 1020,3 60 32 0,0
21.05.2017 20:00:00 18,4 8,9 20,3 15,7 12,7 16 8 27 15 E 1020,6 20 60 0,0
21.05.2017 19:00:00 20,0 9,3 20,2 15,5 12,7 16 9 28 15 ESE 1020,9 19 47 0,0
21.05.2017 18:00:00 20,3 9,8 20,0 15,3 12,7 16 9 28 15 ESE 1021,4 19 47 0,0
21.05.2017 17:00:00 21,0 9,3 21,7 15,1 12,7 16 9 26 14 SSE 1022,1 60 40 0,0
21.05.2017 16:00:00 20,1 10,2 22,2 14,9 12,7 13 7 30 16 SE 1022,9 20 32 0,0
21.05.2017 15:00:00 19,9 9,5 21,0 14,7 12,7 12 7 27 15 E 1023,5 19 38 0,0
21.05.2017 14:00:00 19,3 10,0 19,9 14,6 12,7 15 8 26 14 ESE 1024,2 13 38 0,0
21.05.2017 13:00:00 17,5 9,1 20,1 14,4 12,7 10 6 26 14 SSE 1024,9 19 44 0,0
21.05.2017 12:00:00 17,1 9,5 19,5 14,4 12,7 16 9 29 16 SE 1025,6 19 50 0,0
21.05.2017 11:00:00 16,7 8,9 20,6 14,4 12,7 14 8 23 13 SE 1025,9 60 60 0,0
21.05.2017 10:00:00 15,5 9,8 17,3 14,4 12,7 8 4 13 7 SSE 1026,1 60 60 0,0
21.05.2017 09:00:00 13,4 9,3 11,8 14,5 12,7 9 5 13 7 ESE 1026,1 18 60 0,0
21.05.2017 08:00:00 10,1 8,5 6,9 14,6 12,7 8 4 10 6 ESE 1026,2 16 60 0,0
21.05.2017 07:00:00 7,2 6,8 0,8 14,8 12,7 6 3 7 4 ESE 1026,1 10 14 0,0
21.05.2017 06:00:00 6,0 5,6 0,8 14,9 12,7 0 0 9 5 N 1025,9 3,8 0 0,0
21.05.2017 05:00:00 6,3 5,6 1,4 15,0 12,7 6 3 8 4 SE 1025,7 1,5 0 0,0
21.05.2017 04:00:00 7,3 6,9 1,7 15,1 12,7 4 2 6 4 SSE 1025,6 9 0 0,0
21.05.2017 03:00:00 7,3 6,6 2,0 15,2 12,7 4 2 6 3 SSE 1025,8 10 0 0,0
21.05.2017 02:00:00 8,0 6,9 2,5 15,3 12,7 0 0 4 2 N 1026,0 13 0 0,0
21.05.2017 01:00:00 8,5 7,4 3,5 15,4 12,6 0 0 8 4 N 1025,9 16 0 0,0
21.05.2017 00:00:00 9,2 8,0 5,5 15,4 12,7 8 4 14 7 WSW 1025,5 20 0 0,0
20.05.2017 23:00:00 9,8 7,4 5,6 15,5 12,7 3 1 4 2 ESE 1025,2 18 0 0,0
20.05.2017 22:00:00 10,8 7,5 7,6 15,4 12,6 0 0 6 4 N 1024,6 8 0 0,0
20.05.2017 21:00:00 13,1 7,5 12,4 15,4 12,6 2 1 6 3 SSW 1023,9 60 0 0,0
20.05.2017 20:00:00 14,1 7,6 12,8 15,3 12,6 6 3 12 6 SW 1023,5 16 0 0,0
20.05.2017 19:00:00 14,3 7,6 15,7 15,2 12,6 8 5 22 12 SSW 1023,0 60 14 0,0
20.05.2017 18:00:00 15,0 8,2 17,0 15,1 12,6 16 9 27 15 S 1022,7 19 24 0,0
20.05.2017 17:00:00 15,2 8,9 13,2 15,0 12,6 9 5 27 14 SW 1022,5 7 8 0,4
20.05.2017 16:00:00 15,7 6,4 18,0 14,8 12,6 17 9 30 16 WSW 1022,1 60 20 0,0
20.05.2017 15:00:00 16,6 8,8 17,9 14,7 12,6 11 6 29 16 SW 1021,4 20 21 0,0
20.05.2017 14:00:00 16,0 8,2 17,3 14,6 12,6 19 10 32 17 SW 1021,4 19 11 0,0
20.05.2017 13:00:00 15,5 7,3 17,1 14,5 12,6 22 12 33 18 S 1021,1 60 38 0,0
20.05.2017 12:00:00 14,0 6,4 16,5 14,5 12,6 14 8 30 16 SSW 1021,0 59 34 0,0
20.05.2017 11:00:00 13,8 7,3 15,5 14,5 12,6 19 10 34 18 SSW 1020,4 20 55 0,0
20.05.2017 10:00:00 12,3 7,4 14,7 14,6 12,6 13 7 23 12 SSW 1020,2 20 60 0,0
20.05.2017 09:00:00 10,4 7,3 10,2 14,7 12,6 10 5 14 8 S 1019,8 18 60 0,0
20.05.2017 08:00:00 7,9 6,5 5,8 14,8 12,6 6 4 10 5 S 1019,3 16 60 0,0
20.05.2017 07:00:00 5,6 5,2 -0,2 14,9 12,6 7 4 10 5 S 1019,0 12 27 0,0
20.05.2017 06:00:00 4,4 3,5 -0,2 15,0 12,6 4 2 12 7 S 1018,3 4,1 0 0,0
20.05.2017 05:00:00 5,2 4,3 0,9 15,1 12,6 9 5 13 7 SSW 1017,9 11 0 0,0
20.05.2017 04:00:00 6,5 4,7 2,9 15,2 12,5 8 5 11 6 SW 1017,7 60 0 0,0
20.05.2017 03:00:00 7,9 6,0 7,2 15,3 12,6 6 4 16 9 SW 1017,3 60 0 0,0
20.05.2017 02:00:00 8,4 6,7 7,5 15,4 12,5 10 5 20 11 WSW 1017,4 60 0 0,0
20.05.2017 01:00:00 8,0 7,1 5,4 15,4 12,5 6 3 11 6 SW 1017,0 60 0 0,0
20.05.2017 00:00:00 8,7 6,5 7,5 15,5 12,5 5 3 8 4 SSW 1016,7 57 0 0,0
19.05.2017 23:00:00 9,2 6,8 8,8 15,5 12,5 8 4 11 6 SSW 1016,6 60 0 0,0
19.05.2017 22:00:00 9,7 6,0 8,9 15,5 12,5 8 4 13 7 WSW 1016,1 60 0 0,0
19.05.2017 21:00:00 9,7 7,1 9,2 15,5 12,5 6 3 16 9 SW 1015,7 16 2 0,0
19.05.2017 20:00:00 12,2 7,9 12,4 15,4 12,5 13 7 21 12 SSW 1014,8 55 11 0,0
19.05.2017 19:00:00 13,8 5,2 15,1 15,3 12,5 11 6 27 15 WSW 1014,8 60 38 0,0
19.05.2017 18:00:00 15,0 5,5 16,2 15,2 12,5 12 6 22 12 WSW 1014,5 19 56 0,0
19.05.2017 17:00:00 12,9 6,2 16,4 15,1 12,5 16 8 47 26 W 1014,7 20 46 0,0
19.05.2017 16:00:00 15,5 6,5 14,8 14,9 12,5 19 10 29 16 SSW 1014,4 19 26 0,0
19.05.2017 15:00:00 14,7 6,0 15,8 14,8 12,5 11 6 24 13 W 1014,4 19 43 0,0
19.05.2017 14:00:00 12,0 6,9 11,1 14,7 12,4 17 9 38 20 WSW 1014,8 49 14 0,2
19.05.2017 13:00:00 14,7 6,8 16,0 14,7 12,5 6 3 29 16 W 1014,1 56 38 0,0
19.05.2017 12:00:00 13,4 7,4 13,2 14,7 12,4 16 9 28 15 SW 1014,3 19 25 0,0
19.05.2017 11:00:00 13,2 8,1 13,3 14,7 12,4 14 8 24 13 WSW 1014,2 20 22 0,0
19.05.2017 10:00:00 11,3 8,7 11,7 14,8 12,4 16 9 26 14 WSW 1014,1 18 15 0,0
19.05.2017 09:00:00 9,9 8,7 9,7 14,9 12,4 16 9 26 14 WSW 1013,8 11 2 0,0
19.05.2017 08:00:00 8,9 8,1 8,6 15,0 12,4 15 8 23 12 W 1013,6 10 0 0,0

tt = Température de l'air
td = dewpoint
tt 5cm = Température de l'air 5cm
tt -20cm = Température de l'air -20cm
tt -100cm = Température de l'air -100cm
ff = Vitesse du vent
fx = gusts
dd = Direction du vent
ppp = reduced air pressure
vv = visibility
sd = Ensoleillement
rr = Quantités de précipitations

stations d'obs. à proximité